Home > Weather > Oftringen > Past weeks

Flag for Switzerland Past Weather in Oftringen, Aargau, Switzerland — Yesterday and Last 2 Weeks

Now
66 °F

Mild.


Feels Like: 66 °F
Forecast: 51 / 71 °F
Wind: 2 mph from East

Location: Wynau

Current Time: Jun 26, 2016 at 12:11:34 PM

Latest Report: Jun 26, 2016 at 11:00 AM


Visibility: N/A

Pressure: 30.08 "Hg

Humidity: 60%

Dew Point: 51 °F

Location of OftringenLocation

Past Weather in Oftringen — Graph

°F

Oftringen Temperature Yesterday

Maximum temperature yesterday: 75 °F (at 12:00 AM)
Minimum temperature yesterday: 61 °F (at 11:00 PM)
Average temperature yesterday: 67 °F

High & Low Weather Summary for the Past Weeks

 TemperatureHumidityPressure
High91 °F (Jun 23, 5:00 PM)100% (Jun 18, 6:00 AM)30.28 "Hg (Jun 18, 6:00 AM)
Low50 °F (Jun 18, 6:00 AM)35% (Jun 24, 2:00 PM)29.57 "Hg (Jun 15, 5:00 PM)
Average62 °F83%29.95 "Hg
* Reported Jun 11 10:00 AM — Jun 26 10:00 AM, Oftringen, Weather by CustomWeather, © 2016

Note: Actual official high and low records may vary slightly from our data, if they occured in-between our weather recording intervals... More about our weather records

Advertising

Oftringen Weather History for the Previous 24 Hours

Scroll right to see more
 ConditionsComfort  
Time TempWeatherWind HumidityBarometerVisibility
10:00 AM
Sun, Jun 26
63 °FMild.3 mph72%30.09 "HgN/A
9:00 AM60 °FCool.2 mph90%30.11 "HgN/A
8:00 AM56 °FCool.1 mph94%30.11 "HgN/A
7:00 AM54 °FCool.1 mph97%30.11 "HgN/A
6:00 AM53 °FCool.No wind100%30.11 "HgN/A
5:00 AM53 °FCool.1 mph100%30.11 "HgN/A
4:00 AM53 °FCool.No wind99%30.11 "HgN/A
3:00 AM55 °FCool.1 mph98%30.11 "HgN/A
2:00 AM56 °FCool.2 mph95%30.12 "HgN/A
1:00 AM57 °FCool.1 mph94%30.12 "HgN/A
12:00 AM59 °FCool.1 mph94%30.11 "HgN/A
11:00 PM
Sat, Jun 25
61 °FCool.1 mph96%30.09 "HgN/A
10:00 PM61 °FCool.1 mph94%30.07 "HgN/A
9:00 PM61 °FCool.1 mph93%30.06 "HgN/A
7:00 PM68 °FMild.3 mph67%29.98 "HgN/A
6:00 PM70 °FMild.2 mph69%29.97 "HgN/A
5:00 PM69 °FMild.1 mph82%29.98 "HgN/A
4:00 PM68 °FMild.1 mph85%29.98 "HgN/A
3:00 PM68 °FMild.10 mph78%29.96 "HgN/A
2:00 PM74 °FMild.9 mph66%29.90 "HgN/A
1:00 PM72 °FMild.6 mph75%29.93 "HgN/A
12:00 PM69 °FMild.5 mph81%29.93 "HgN/A
Weather by CustomWeather, © 2016

See weather overviewHow to use our weather pages